[[{"header":{"parameterUnit":"m.s-1","parameterCategory":1,"la1":30.2991,"la2":30.254,"lo1":-89.0895,"lo2":-89.0444,"dy":0.0017,"dx":0.0017,"nx":28,"ny":28,"refTime":"2023-08-25T09:00:00:Z","depth":0,"parameterNumber":2,"parameterNumberName":"U-component_of_WINDS"},"data":[0,0,0,0,0,0,0,0,0,0,0,0,0,0,0,0,0,0,0,0,0,0,0,0,0,0,0,0,0,0,0,0,0,0,0,0,0,0,0,0,0,0,0,0,0,0,0,0,0,0,0,0,0,0,0,0,0,0,-1.0,-0.9999,0,-0.9837,-0.9835,-0.9833,-0.9742,-0.9742,-0.9742,-0.9741,-0.9572,-0.9568,-0.9563,0,0,0,0,0,0,0,0,0,0,0,0,0,-1.0235,-1.0231,-1.0001,-0.9998,-0.9996,-0.9837,-0.9835,-0.9832,-0.9742,-0.9742,-0.9742,-0.9741,-0.9573,-0.9568,-0.9563,0,0,0,0,0,0,0,0,0,0,0,0,0,-1.0108,-1.023,-1.0001,-0.9932,-0.9924,-0.9837,-0.9835,-0.9832,-0.9742,-0.9742,-0.9741,-0.9741,-0.9575,-0.9569,-0.9562,-0.953,0,0,-0.9543,-0.954,0,0,0,0,0,0,0,0,-1.0116,-1.01,-0.9944,-0.9937,-0.9928,-0.9809,-0.9855,-0.9731,-0.9742,-0.9811,-0.9741,-0.9741,-0.9651,-0.9638,-0.9608,-0.9522,-0.9515,-0.9542,-0.9538,-0.9535,-0.9534,0,0,0,0,0,0,0,-1.0124,-1.0106,-0.9935,-0.9942,-0.9932,-0.9909,-0.9891,-0.9831,-0.9735,-0.9805,-0.9798,-0.978,-0.9646,-0.9615,-0.9604,-0.9512,-0.9542,-0.9536,-0.9533,-0.953,-0.9394,-0.9394,0,0,0,0,0,0,-1.0144,-1.0114,-0.9941,-0.9931,-1.0023,-0.9906,-0.9885,-0.9848,-0.9736,-0.9718,-0.9781,-0.9777,-0.9626,-0.9611,-0.9597,-0.9554,-0.9535,-0.9529,-0.9526,-0.9394,-0.9394,-0.9394,0,0,0,0,0,0,-1.015,-1.013,-0.9947,-1.002,-0.9996,-0.9902,-0.9861,-0.9845,-0.9813,-0.9717,-0.97,-0.9766,-0.9625,-0.9606,-0.9548,-0.9546,-0.9526,-0.9521,-0.9393,-0.9394,-0.9394,-0.9466,0,0,0,0,0,0,-1.0157,-1.0132,-1.0119,-1.0021,-0.9992,-0.9901,-0.9861,-0.9842,-0.9802,-0.9795,-0.9699,-0.9682,-0.9623,-0.9558,-0.9542,-0.9537,-0.9516,-0.9393,-0.9394,-0.9394,-0.9463,-0.9468,-0.9473,0,0,0,0,0,-1.0166,-1.0145,-1.0119,-1.0098,-0.9974,-0.9901,-0.9885,-0.9818,-0.9803,-0.9789,-0.9728,-0.9685,-0.955,-0.9553,-0.9534,-0.9527,-0.9393,-0.9394,-0.9394,-0.9461,-0.9467,-0.9473,0,0,0,0,0,0,-1.0244,-1.0131,-1.01,-1.0047,-0.9985,-0.9886,-0.9866,-0.9827,-0.9766,-0.9762,-0.9681,-0.966,-0.961,-0.9563,-0.9569,-0.9492,-0.9467,-0.9464,-0.9524,-0.953,-0.9535,-0.9547,-0.951,0,0,0,0,0,-1.0255,-1.0206,-1.011,-1.0072,-1.0042,-0.996,-0.9926,-0.988,-0.9812,-0.9785,-0.9719,-0.9654,-0.9597,-0.956,-0.9502,-0.9456,-0.9434,-0.9442,-0.9447,-0.9452,-0.945,-0.9424,-0.9427,-0.9396,-0.9396,-0.9396,0,0,-1.0277,-1.021,-1.0183,-1.0086,-1.0032,-0.9984,-0.9938,-0.9888,-0.9851,-0.9777,-0.9718,-0.9668,-0.959,-0.9539,-0.9512,-0.9497,-0.9454,-0.9453,-0.9457,-0.9452,-0.9425,-0.9428,-0.943,-0.9396,-0.9396,-0.9396,0,0,-1.0293,-1.0237,-1.02,-1.0148,-1.0067,-1.0013,-1.0005,-0.9912,-0.9877,-0.9817,-0.9761,-0.9716,-0.9618,-0.9566,-0.9526,-0.9526,-0.9485,-0.9509,-0.9535,-0.9511,-0.9513,-0.9515,-0.9516,-0.9517,-0.9507,-0.9508,-0.9508,0,-1.0331,-1.0255,-1.0186,-1.014,-1.0099,-1.0031,-0.9994,-0.9946,-0.9851,-0.9825,-0.981,-0.9688,-0.963,-0.9566,-0.9567,-0.9536,-0.9525,-0.9519,-0.9518,-0.9519,-0.952,-0.952,-0.952,-0.9511,-0.9511,-0.951,-0.951,0,-1.0306,-1.0255,-1.0235,-1.0147,-1.0104,-1.0062,-0.9987,-0.9952,-0.9911,-0.9859,-0.98,-0.9729,-0.9656,-0.9638,-0.9596,-0.9568,-0.9562,-0.9534,-0.9507,-0.9528,-0.9526,-0.9525,-0.9516,-0.9515,-0.9514,-0.9513,0,0,-1.0365,-1.0241,-1.0234,-1.0194,-1.0102,-1.0061,-1.0017,-0.9947,-0.9919,-0.9856,-0.9818,-0.9739,-0.9713,-0.9668,-0.9621,-0.9599,-0.9605,-0.9573,-0.957,-0.9583,-0.9572,-0.9594,-0.9595,-0.9578,-0.9578,-0.9577,-0.9579,0,-1.0368,-1.0287,-1.0224,-1.0166,-1.0119,-1.0055,-1.0017,-0.9957,-0.9907,-0.986,-0.9805,-0.9751,-0.972,-0.9693,-0.9669,-0.961,-0.9602,-0.9608,-0.9542,-0.954,-0.9564,-0.9594,-0.9616,-0.9621,-0.9577,-0.9577,-0.9577,0,-1.036,-1.0302,-1.024,-1.0154,-1.0132,-1.0099,-1.0031,-0.9987,-0.9917,-0.9883,-0.9835,-0.9786,-0.9738,-0.9717,-0.965,-0.9656,-0.9625,-0.9592,-0.9591,-0.9582,-0.956,-0.9586,-0.962,-0.9622,-0.9575,-0.9575,-0.9576,0,-1.0411,-1.0316,-1.0267,-1.0235,-1.0133,-1.0112,-1.0069,-0.9999,-0.9962,-0.9903,-0.9878,-0.9814,-0.9779,-0.973,-0.9666,-0.9656,-0.9606,-0.9579,-0.9576,-0.9578,-0.9568,-0.957,-0.9598,-0.9548,-0.9548,-0.9548,-0.9548,0,-1.0421,-1.0386,-1.0289,-1.0259,-1.0218,-1.0147,-1.0109,-1.006,-0.9999,-0.9959,-0.9899,-0.9863,-0.978,-0.9734,-0.9683,-0.9636,-0.962,-0.9591,-0.9578,-0.9597,-0.9601,-0.9575,-0.9574,-0.9548,-0.9548,-0.9548,-0.9548,0,-1.047,-1.0403,-1.0346,-1.0256,-1.0233,-1.0207,-1.013,-1.0099,-1.0047,-0.9997,-0.9981,-0.99,-0.9843,-0.9774,-0.9694,-0.966,-0.9618,-0.9598,-0.9642,-0.9634,-0.9636,-0.9637,-0.965,-0.9648,-0.9599,-0.96,-0.96,0,-1.0481,-1.0452,-1.036,-1.033,-1.0289,-1.024,-1.0202,-1.0132,-1.0095,-1.0015,-0.9994,-0.9933,-0.988,-0.9791,-0.9725,-0.9664,-0.9643,-0.9652,-0.9633,-0.9654,-0.9644,-0.9647,-0.9644,-0.9657,-0.9657,-0.9658,-0.9659,0,-1.0507,-1.0477,-1.0425,-1.0363,-1.032,-1.0267,-1.0211,-1.019,-1.0108,-1.007,-1.0012,-0.9971,-0.989,-0.9831,-0.9762,-0.9717,-0.9675,-0.9665,-0.9662,-0.968,-0.9707,-0.9694,-0.9656,-0.9665,-0.9664,-0.9664,-0.9664,-0.9663,-1.0538,-1.051,-1.0442,-1.0387,-1.0339,-1.0289,-1.0256,-1.0201,-1.0151,-1.0081,-1.0043,-0.9986,-0.9919,-0.9822,-0.978,-0.9734,-0.9719,-0.9713,-0.9712,-0.9712,-0.9718,-0.9715,-0.9721,-0.9721,-0.9721,-0.9721,-0.972,0,-1.0562,-1.0516,-1.0466,-1.0391,-1.0349,-1.0314,-1.0251,-1.0218,-1.0169,-1.011,-1.006,-0.9994,-0.9937,-0.9867,-0.9805,-0.9782,-0.9761,-0.9768,-0.9769,-0.976,-0.9735,-0.9745,-0.9786,-0.9786,-0.9786,-0.9786,-0.9786,-0.9786,-1.057,-1.0523,-1.0484,-1.0413,-1.0366,-1.0311,-1.0278,-1.0233,-1.0186,-1.0115,-1.0067,-1.0023,-0.996,-0.9894,-0.984,-0.9821,-0.9801,-0.9814,-0.979,-0.9767,-0.9762,-0.9756,-0.9765,-0.981,-0.981,-0.9819,-0.9819,-0.9819]},{"header":{"parameterUnit":"m.s-1","parameterCategory":1,"la1":30.2991,"la2":30.254,"lo1":-89.0895,"lo2":-89.0444,"dy":0.0017,"dx":0.0017,"nx":28,"ny":28,"refTime":"2023-08-25T09:00:00:Z","depth":0,"parameterNumber":3,"parameterNumberName":"V-component_of_WINDS"},"data":[0,0,0,0,0,0,0,0,0,0,0,0,0,0,0,0,0,0,0,0,0,0,0,0,0,0,0,0,0,0,0,0,0,0,0,0,0,0,0,0,0,0,0,0,0,0,0,0,0,0,0,0,0,0,0,0,0,0,2.0174,2.0174,0,2.0133,2.0132,2.0132,2.0149,2.015,2.0151,2.0152,2.0105,2.0103,2.01,0,0,0,0,0,0,0,0,0,0,0,0,0,2.0263,2.0261,2.0174,2.0174,2.0173,2.0133,2.0132,2.0132,2.0149,2.015,2.0151,2.0152,2.0105,2.0103,2.01,0,0,0,0,0,0,0,0,0,0,0,0,0,2.0223,2.0261,2.0174,2.0177,2.0177,2.0133,2.0132,2.0132,2.0148,2.015,2.0151,2.0153,2.0106,2.0103,2.01,2.005,0,0,2.009,2.0088,0,0,0,0,0,0,0,0,2.0225,2.022,2.0177,2.0177,2.0176,2.0148,2.0146,2.0104,2.0148,2.0159,2.0152,2.0153,2.0117,2.0113,2.0102,2.0048,2.0046,2.009,2.0088,2.0086,2.0085,0,0,0,0,0,0,0,2.0228,2.0222,2.0158,2.0176,2.0176,2.0178,2.0174,2.0138,2.013,2.0158,2.0159,2.0154,2.0117,2.0105,2.0101,2.0045,2.009,2.0087,2.0085,2.0083,1.9946,1.9944,0,0,0,0,0,0,2.0232,2.0224,2.0159,2.0156,2.0205,2.0176,2.0171,2.0155,2.0131,2.0128,2.0153,2.0155,2.011,2.0105,2.01,2.0038,2.0086,2.0083,2.0081,1.9947,1.9945,1.9943,0,0,0,0,0,0,2.0233,2.0226,2.0161,2.019,2.0182,2.0173,2.0154,2.0154,2.0141,2.0127,2.0125,2.0142,2.0111,2.0104,2.0062,2.0036,2.0082,2.0079,1.9949,1.9947,1.9944,1.9915,0,0,0,0,0,0,2.0236,2.0226,2.0208,2.019,2.0181,2.0125,2.0153,2.0152,2.0136,2.0139,2.0116,2.0114,2.0112,2.0067,2.0059,2.0033,2.0076,1.9951,1.9948,1.9945,1.9918,1.9912,1.9906,0,0,0,0,0,2.0239,2.0201,2.0207,2.0199,2.0158,2.0124,2.0118,2.0118,2.0134,2.0115,2.0106,2.0115,2.0041,2.0062,2.0053,2.0026,1.9953,1.9949,1.9945,1.9921,1.9913,1.9906,0,0,0,0,0,0,2.0215,2.0198,2.0205,2.0161,2.0143,2.0127,2.0102,2.011,2.0086,2.0089,2.0088,2.0083,2.0039,2.0029,2.0053,1.9976,1.9999,1.9994,1.9984,1.9976,1.997,1.9972,2.0073,0,0,0,0,0,2.0204,2.0179,2.0166,2.0127,2.0119,2.0112,2.0097,2.0098,2.008,2.0072,2.006,2.004,2.0013,1.9994,1.9968,1.9918,1.9911,1.9894,1.9888,1.9883,1.9877,1.9848,1.9839,1.9931,1.9931,1.9931,0,0,2.0182,2.017,2.0154,2.0122,2.0109,2.0081,2.0106,2.0075,2.0054,2.0067,2.0026,2.0017,1.9995,1.9948,1.9926,1.9938,1.9851,1.9879,1.9875,1.9871,1.9843,1.9834,1.9827,1.9928,1.9929,1.9929,0,0,2.0127,2.0117,2.0083,2.0069,2.005,2.0046,2.0038,2.002,2.0014,1.9974,1.9982,1.9956,1.9909,1.9893,1.9878,1.9817,1.9824,1.9809,1.9776,1.9748,1.974,1.9734,1.971,1.9701,1.9804,1.9803,1.9803,0,2.0101,2.0061,2.0064,2.0032,2.0017,2.003,1.9994,1.9981,1.9953,1.9941,1.9955,1.9896,1.9882,1.983,1.9816,1.9804,1.9793,1.981,1.9742,1.9735,1.9729,1.9706,1.9697,1.9802,1.9802,1.9802,1.9802,0,2.0029,2.0001,1.9976,1.995,1.9932,1.9899,1.9895,1.9876,1.9879,1.9873,1.9831,1.9815,1.9785,1.9774,1.9776,1.9722,1.9729,1.9743,1.9766,1.9718,1.9696,1.9688,1.9799,1.98,1.98,1.9801,0,0,1.9955,1.9932,1.9923,1.991,1.989,1.9867,1.9834,1.9806,1.9789,1.977,1.9741,1.9701,1.9713,1.9696,1.9697,1.9672,1.9621,1.9688,1.9687,1.9674,1.9558,1.9546,1.9536,1.9627,1.9625,1.9624,1.9559,0,1.9897,1.984,1.9841,1.9787,1.976,1.9772,1.9743,1.9726,1.9719,1.9694,1.9687,1.9658,1.9677,1.9667,1.9643,1.9633,1.9598,1.9638,1.9597,1.9595,1.9599,1.9525,1.9513,1.9452,1.9551,1.9549,1.9548,0,1.982,1.9799,1.9743,1.9725,1.9714,1.9688,1.9662,1.9639,1.9619,1.9616,1.9598,1.9603,1.9567,1.9594,1.9543,1.957,1.9554,1.9546,1.9544,1.9538,1.9567,1.9514,1.9433,1.9423,1.9535,1.9536,1.9537,0,1.9769,1.9727,1.9687,1.9677,1.9656,1.9637,1.9627,1.961,1.9593,1.957,1.9559,1.9532,1.9516,1.9494,1.9491,1.9511,1.9439,1.9466,1.9433,1.9433,1.9415,1.9416,1.9327,1.9409,1.9409,1.941,1.941,0,1.9701,1.9666,1.9664,1.9639,1.9599,1.9601,1.9561,1.9553,1.9537,1.9509,1.9519,1.9492,1.9491,1.9463,1.946,1.9417,1.9411,1.9405,1.9404,1.9403,1.9403,1.939,1.9393,1.9407,1.9408,1.9408,1.9409,0,1.9636,1.9634,1.9591,1.9576,1.9571,1.9542,1.9528,1.9503,1.9498,1.9463,1.9455,1.9447,1.9415,1.941,1.9372,1.937,1.9318,1.9323,1.9324,1.9324,1.9291,1.9293,1.9188,1.9173,1.9268,1.9267,1.9266,0,1.9592,1.9565,1.9547,1.953,1.9519,1.9492,1.9475,1.9476,1.9457,1.9433,1.9411,1.9381,1.9356,1.9304,1.9293,1.9264,1.9266,1.9232,1.9262,1.9261,1.9262,1.9263,1.9259,1.9225,1.9224,1.9223,1.9223,0,1.9513,1.9513,1.9489,1.9464,1.9443,1.9423,1.9404,1.939,1.9388,1.9366,1.9335,1.9316,1.9278,1.9246,1.9217,1.9206,1.9212,1.9214,1.9204,1.9201,1.9202,1.9198,1.9306,1.9215,1.9216,1.9217,1.9217,1.9217,1.9455,1.9431,1.9414,1.9386,1.9373,1.9355,1.933,1.9323,1.9297,1.9267,1.9269,1.9233,1.9214,1.9176,1.9163,1.9133,1.9144,1.9131,1.9127,1.9123,1.9118,1.9209,1.9128,1.9129,1.9129,1.9129,1.9129,0,1.9374,1.9364,1.9339,1.9312,1.929,1.9302,1.9281,1.9261,1.923,1.9212,1.9188,1.915,1.912,1.9107,1.9077,1.9056,1.9058,1.9048,1.9048,1.9044,1.9112,1.9122,1.9046,1.9046,1.9046,1.9046,1.9046,1.9046,1.9329,1.9288,1.9286,1.9238,1.9228,1.9194,1.9181,1.9164,1.915,1.9108,1.9083,1.9076,1.9059,1.9028,1.9,1.8997,1.8984,1.8971,1.8969,1.9032,1.904,1.9048,1.9057,1.8969,1.8969,1.8904,1.8903,1.8903]}]]